Weather History for Fairmont, MN

Change the Weather History Date:

Friday, October 4, 2013

  Actual Average Record
Temperature  
Mean Temperature 60 °F -  
Max Temperature 64 °F 65 °F 87 °F (1969)
Min Temperature 55 °F 42 °F 27 °F (1989)
Degree Days  
Heating Degree Days 6    
Growing Degree Days 10 (Base 50)    
Moisture  
Dew Point 56 °F    
Average Humidity 88    
Maximum Humidity 94    
Minimum Humidity 77    
Precipitation  
Precipitation 0.84 in - - ()
Sea Level Pressure  
Sea Level Pressure 29.85 in    
Wind  
Wind Speed 10 mph (NE)    
Max Wind Speed 15 mph    
Max Gust Speed 22 mph    
Visibility 6 miles    
Events Thunderstorm    
Averages and records for this station are not official NWS values.
T = Trace of Precipitation, MM = Missing Value Source: NWS Daily Summary

Daily Weather History Graph

Daily Weather History Graph

Search for Another Location

Airport:

Trip Planner

Search our weather history database for the weather conditions in past years. The results will help you decide how hot, cold, wet, or windy it might be!

Date:

Astronomy

Oct. 04, 2013 Rise Set
Actual Time 7:19 AM CDT 6:52 PM CDT
Civil Twilight 6:50 AM CDT 7:21 PM CDT
Nautical Twilight 6:17 AM CDT 7:54 PM CDT
Astronomical Twilight 5:43 AM CDT 8:27 PM CDT
Moon 6:55 AM CDT (10/4) 6:34 PM CDT (10/4)
Length of Visible Light 12h 30m
Length of Day
11h 33m
Waning Crescent, 0% of the Moon is Illuminated
Oct 4
Waning Crescent
Oct 4
New
Oct 11
First Quarter
Oct 18
Full
Oct 26
Last Quarter

Hourly Weather History & Observations

Time (CDT) Temp. Dew Point Humidity Pressure Visibility Wind Dir Wind Speed Gust Speed Precip Events Conditions
12:15 AM 57.2 °F 53.6 °F 88% 29.90 in 3.0 mi NNE 9.2 mph - N/A   Overcast
12:35 AM 57.2 °F 53.6 °F 88% 29.89 in 7.0 mi North 9.2 mph 18.4 mph N/A   Overcast
12:55 AM 57.2 °F 53.6 °F 88% 29.90 in 8.0 mi NNE 10.4 mph - N/A   Overcast
1:15 AM 57.2 °F 53.6 °F 88% 29.90 in 8.0 mi NNE 9.2 mph - N/A   Overcast
1:35 AM 57.2 °F 53.6 °F 88% 29.90 in 10.0 mi North 10.4 mph - N/A   Overcast
1:55 AM 57.2 °F 53.6 °F 88% 29.90 in 3.0 mi NNE 6.9 mph - N/A   Overcast
2:15 AM 57.2 °F 53.6 °F 88% 29.91 in 3.0 mi NNE 10.4 mph - N/A   Overcast
2:35 AM 57.2 °F 53.6 °F 88% 29.91 in 5.0 mi NNE 10.4 mph - N/A   Overcast
2:55 AM 57.2 °F 53.6 °F 88% 29.92 in 1.8 mi NE 9.2 mph - N/A   Overcast
3:15 AM 57.2 °F 53.6 °F 88% 29.90 in 1.0 mi NNE 6.9 mph - N/A   Overcast
3:35 AM 57.2 °F 53.6 °F 88% 29.90 in 0.8 mi NNE 5.8 mph - N/A   Overcast
3:55 AM 57.2 °F 53.6 °F 88% 29.91 in 1.0 mi NE 9.2 mph - N/A   Overcast
4:15 AM 57.2 °F 53.6 °F 88% 29.90 in 1.0 mi NE 9.2 mph - N/A   Overcast
4:35 AM 57.2 °F 53.6 °F 88% 29.90 in 1.0 mi NE 10.4 mph - N/A   Overcast
4:55 AM 57.2 °F 53.6 °F 88% 29.91 in 0.8 mi ENE 9.2 mph - N/A   Overcast
5:15 AM 55.4 °F 53.6 °F 94% 29.91 in 0.8 mi North 5.8 mph - N/A   Overcast
5:35 AM 55.4 °F 53.6 °F 94% 29.91 in 1.0 mi NNE 9.2 mph - N/A   Overcast
5:55 AM 55.4 °F 53.6 °F 94% 29.89 in 1.2 mi NE 10.4 mph - N/A   Overcast
6:15 AM 55.4 °F 53.6 °F 94% 29.90 in 2.0 mi NNE 10.4 mph - N/A   Overcast
6:35 AM 55.4 °F 53.6 °F 94% 29.91 in 2.0 mi NNE 10.4 mph - N/A   Overcast
6:55 AM 55.4 °F 53.6 °F 94% 29.90 in 1.2 mi NE 8.1 mph - N/A   Overcast
7:15 AM 55.4 °F 53.6 °F 94% 29.90 in 1.0 mi NE 9.2 mph - N/A   Overcast
7:35 AM 55.4 °F 53.6 °F 94% 29.88 in 0.5 mi NE 8.1 mph - N/A   Overcast
7:55 AM 55.4 °F 53.6 °F 94% 29.87 in 0.5 mi NE 10.4 mph 16.1 mph N/A   Overcast
8:15 AM 55.4 °F 53.6 °F 94% 29.90 in 1.5 mi NNE 5.8 mph - N/A   Overcast
8:35 AM 55.4 °F 53.6 °F 94% 29.90 in 1.8 mi NE 9.2 mph - N/A   Overcast
8:55 AM 57.2 °F 53.6 °F 88% 29.89 in 2.5 mi NE 8.1 mph - N/A   Overcast
9:15 AM 57.2 °F 53.6 °F 88% 29.88 in 2.0 mi NE 11.5 mph - N/A   Overcast
9:35 AM 57.2 °F 55.4 °F 94% 29.89 in 2.5 mi ENE 10.4 mph 17.3 mph N/A   Overcast
9:55 AM 57.2 °F 55.4 °F 94% 29.90 in 2.0 mi ENE 10.4 mph - N/A   Overcast
10:15 AM 57.2 °F 55.4 °F 94% 29.91 in 1.8 mi ENE 5.8 mph - N/A   Overcast
10:35 AM 57.2 °F 55.4 °F 94% 29.90 in 3.0 mi ENE 8.1 mph - N/A   Overcast
10:55 AM 59.0 °F 55.4 °F 88% 29.92 in 5.0 mi East 9.2 mph - N/A   Overcast
11:15 AM 59.0 °F 57.2 °F 94% 29.91 in 8.0 mi ENE 8.1 mph - N/A   Overcast
11:35 AM 60.8 °F 57.2 °F 88% 29.90 in 5.0 mi ENE 6.9 mph - N/A   Overcast
11:55 AM 60.8 °F 57.2 °F 88% 29.90 in 5.0 mi East 11.5 mph - N/A   Overcast
12:15 PM 60.8 °F 57.2 °F 88% 29.91 in 4.0 mi ENE 8.1 mph - N/A   Overcast
12:35 PM 60.8 °F 57.2 °F 88% 29.88 in 4.0 mi NE 11.5 mph 17.3 mph N/A   Overcast
12:55 PM 60.8 °F 57.2 °F 88% 29.88 in 3.0 mi ENE 6.9 mph 16.1 mph N/A   Overcast
1:15 PM 60.8 °F 57.2 °F 88% 29.87 in 4.0 mi ENE 12.7 mph 19.6 mph N/A   Overcast
1:35 PM 60.8 °F 57.2 °F 88% 29.86 in 5.0 mi ENE 13.8 mph 18.4 mph N/A   Overcast
1:55 PM 62.6 °F 57.2 °F 82% 29.86 in 8.0 mi ENE 11.5 mph 17.3 mph N/A   Overcast
2:15 PM 62.6 °F 57.2 °F 82% 29.84 in 10.0 mi ENE 13.8 mph 18.4 mph N/A   Overcast
2:35 PM 62.6 °F 57.2 °F 82% 29.84 in 10.0 mi ENE 12.7 mph - N/A   Overcast
2:55 PM 62.6 °F 57.2 °F 82% 29.84 in 10.0 mi ENE 10.4 mph - N/A   Overcast
3:15 PM 64.4 °F 57.2 °F 77% 29.84 in 10.0 mi ENE 9.2 mph - N/A   Overcast
3:35 PM 64.4 °F 57.2 °F 77% 29.83 in 10.0 mi ENE 12.7 mph - N/A   Overcast
3:55 PM 64.4 °F 57.2 °F 77% 29.83 in 10.0 mi ENE 11.5 mph 17.3 mph N/A   Overcast
4:15 PM 64.4 °F 57.2 °F 77% 29.82 in 10.0 mi ENE 11.5 mph - N/A   Overcast
4:35 PM 64.4 °F 57.2 °F 77% 29.82 in 10.0 mi ENE 12.7 mph 19.6 mph N/A   Overcast
4:55 PM 64.4 °F 57.2 °F 77% 29.82 in 10.0 mi ENE 10.4 mph - N/A   Overcast
5:15 PM 62.6 °F 57.2 °F 82% 29.82 in 10.0 mi ENE 11.5 mph - N/A   Overcast
5:35 PM 62.6 °F 57.2 °F 82% 29.80 in 10.0 mi ENE 13.8 mph 19.6 mph N/A   Overcast
5:55 PM 62.6 °F 57.2 °F 82% 29.80 in 10.0 mi ENE 11.5 mph 18.4 mph N/A   Overcast
6:15 PM 62.6 °F 57.2 °F 82% 29.80 in 10.0 mi ENE 11.5 mph 19.6 mph N/A   Overcast
6:35 PM 62.6 °F 57.2 °F 82% 29.79 in 10.0 mi ENE 15.0 mph - N/A   Overcast
6:55 PM 62.6 °F 57.2 °F 82% 29.79 in 8.0 mi ENE 13.8 mph 19.6 mph N/A   Overcast
7:15 PM 62.6 °F 57.2 °F 82% 29.79 in 7.0 mi ENE 13.8 mph 21.9 mph N/A   Overcast
7:35 PM 62.6 °F 57.2 °F 82% 29.81 in 6.0 mi ENE 9.2 mph - N/A   Overcast
7:55 PM 62.6 °F 59.0 °F 88% 29.80 in 7.0 mi East 10.4 mph - N/A   Overcast
8:15 PM 62.6 °F 59.0 °F 88% 29.77 in 7.0 mi East 12.7 mph 17.3 mph 0.01 in   Overcast
8:35 PM 62.6 °F 59.0 °F 88% 29.76 in 8.0 mi ENE 11.5 mph 18.4 mph 0.01 in   Overcast
8:55 PM 62.6 °F 59.0 °F 88% 29.75 in 9.0 mi NE 13.8 mph 18.4 mph 0.01 in   Overcast
9:15 PM 62.6 °F 59.0 °F 88% 29.75 in 10.0 mi ENE 11.5 mph 17.3 mph N/A   Overcast
9:35 PM 62.6 °F 59.0 °F 88% 29.74 in 5.0 mi ENE 12.7 mph 18.4 mph 0.12 in Thunderstorm Thunderstorm
9:55 PM 62.6 °F 59.0 °F 88% 29.79 in 5.0 mi SW 10.4 mph - 0.29 in Thunderstorm Thunderstorm
10:15 PM 62.6 °F 60.8 °F 94% 29.77 in 3.0 mi ENE 4.6 mph - 0.53 in Thunderstorm Thunderstorm
10:35 PM 62.6 °F 60.8 °F 94% 29.76 in 10.0 mi NNE 6.9 mph - 0.54 in   Mostly Cloudy
10:55 PM 62.6 °F 59.0 °F 88% 29.74 in 10.0 mi ENE 5.8 mph - 0.54 in   Partly Cloudy
11:15 PM 60.8 °F 57.2 °F 88% 29.73 in 10.0 mi East 5.8 mph - N/A   Clear
11:35 PM 60.8 °F 57.2 °F 88% 29.73 in 10.0 mi ESE 5.8 mph - N/A   Partly Cloudy
11:55 PM 60.8 °F 59.0 °F 94% 29.72 in 10.0 mi East 3.5 mph - N/A   Partly Cloudy